Location: Akdamlar
(36.8729°N, 30.5187°E)
Time: 14:25:19
(UTC+00:00)

DELTA 2 R/B (1) - Pass Details

Date: 18 September 2020
Orbit: 789 x 803 km, 39.6° (Epoch: 19 October)

Event Time Altitude Azimuth Distance (km) Brightness Sun altitude
Rises 17:55:05 0° 287° (WNW) 3,277 8.2 -23.2°
Reaches altitude 10° 17:57:34 10° 284° (WNW) 2,347 7.1 -23.7°
Maximum altitude 18:03:02 65° 204° (SSW) 863 3.6 -24.7°
Enters shadow 18:03:43 59° 165° (SSE) 905 3.6 -24.8°
